Date String (YYYY-MM-DD hh:mm:ss) UTC,Instrument flags,absolute air pressure of the measurement (hPa),sample flow rate (lpm),inlet stack bypass flow (lpm),air temperature of the measurement (°C),ambient temperature measured by the external sensor (°C),aerosol sample conditioner tube jacket temperature (°C),OPC LED temperature (°C),internal box temperature (°C),relative humidity of the measurement (%),span deviation,mass concentration of particles derived from Lorenz-Mie calculation of OPC scattering (μg/m³),mass concentration of particles derived from Lorenz-Mie calculation of OPC scattering (μg/m³),mass concentration of particles derived from Lorenz-Mie calculation of OPC scattering (μg/m³)
DateTimeUTC,F1_M11,P_M11,Q1_M11,Q2_M11,T1_M11,T2_M11,T3_M11,T4_M11,T5_M11,U1_M11,ZSPAN_M11,X2_M11,X0_M11,X1_M11
2023-10-17 12:00:00,SystemResetWarning,0830.7,5.00,000.00,028.4,026.9,000.0,036.9,030.1,14.0,0000.0,0001.10,0001.63,0000.97
2023-10-17 12:01:00,SystemResetWarning,0830.7,5.00,000.00,028.4,026.9,000.0,036.9,030.0,14.0,0000.0,0001.13,0001.74,0000.96
2023-10-17 12:02:00,SystemResetWarning,0830.7,5.00,000.00,028.4,026.9,000.0,036.9,030.0,13.9,0000.0,0001.16,0001.81,0000.97
2023-10-17 12:03:00,SystemResetWarning,0830.6,5.00,000.00,028.4,026.9,000.0,036.9,030.0,13.9,0000.0,0001.22,0001.99,0000.99
2023-10-17 12:04:00,SystemResetWarning,0830.6,5.00,000.00,028.4,026.9,000.0,036.9,030.0,13.9,0000.0,0001.21,0002.45,0000.99
2023-10-17 12:05:00,SystemResetWarning,0830.7,5.00,000.00,028.4,026.9,000.0,036.9,030.0,14.0,0000.0,0001.24,0002.92,0001.00
2023-10-17 12:06:00,SystemResetWarning,0830.6,5.00,000.00,028.4,026.9,000.0,036.9,030.0,14.0,0000.0,0001.25,0002.86,0001.00
2023-10-17 12:07:00,SystemResetWarning,0830.6,5.00,000.00,028.4,026.9,000.0,036.8,030.0,13.9,0000.0,0001.25,0003.62,0001.01
2023-10-17 12:08:00,SystemResetWarning,0830.6,5.00,000.00,028.4,026.9,000.0,036.8,030.0,13.8,0000.0,0001.28,0003.92,0001.02
2023-10-17 12:09:00,SystemResetWarning,0830.5,5.00,000.00,028.4,026.9,000.0,036.9,030.0,13.6,0000.0,0001.35,0004.06,0001.05
2023-10-17 12:10:00,SystemResetWarning,0830.5,5.00,000.00,028.4,026.9,000.0,036.9,030.0,13.4,0000.0,0001.40,0004.17,0001.07
2023-10-17 12:11:00,SystemResetWarning,0830.5,5.00,000.00,028.4,026.9,000.0,036.9,030.0,13.3,0000.0,0001.44,0004.29,0001.10
2023-10-17 12:12:00,SystemResetWarning,0830.5,5.00,000.00,028.4,026.9,000.0,036.9,030.0,13.4,0000.0,0001.47,0005.50,0001.13
2023-10-17 12:13:00,SystemResetWarning,0830.4,5.00,000.00,028.4,026.9,000.0,036.9,030.0,13.5,0000.0,0001.45,0005.92,0001.12
2023-10-17 12:14:00,SystemResetWarning,0830.5,5.00,000.00,028.4,026.9,000.0,036.9,030.0,13.6,0000.0,0001.43,0005.81,0001.12
2023-10-17 12:15:00,SystemResetWarning,0830.5,5.00,000.00,028.4,026.9,000.0,036.9,030.1,13.7,0000.0,0001.46,0005.62,0001.15
2023-10-17 12:16:00,SystemResetWarning,0830.5,5.00,000.00,028.4,026.9,000.0,036.9,030.1,13.7,0000.0,0001.48,0004.90,0001.18
2023-10-17 12:17:00,SystemResetWarning,0830.4,5.00,000.00,028.4,026.9,000.0,036.9,030.1,13.5,0000.0,0001.51,0004.98,0001.19
2023-10-17 12:18:00,SystemResetWarning,0830.5,4.98,000.00,028.4,026.9,000.0,036.8,030.1,13.3,0000.0,0001.54,0004.25,0001.19
2023-10-17 12:19:00,SystemResetWarning,0830.7,5.00,000.00,028.4,026.9,000.0,036.9,030.1,13.2,0000.0,0001.52,0004.02,0001.18
2023-10-17 12:20:00,SystemResetWarning,0830.6,5.00,000.00,028.4,027.0,000.0,036.8,030.0,13.2,0000.0,0001.51,0003.97,0001.17
2023-10-17 12:21:00,SystemResetWarning,0830.7,5.00,000.00,028.4,027.0,000.0,036.8,030.0,13.3,0000.0,0001.49,0003.98,0001.16
2023-10-17 12:22:00,SystemResetWarning,0830.4,5.00,000.00,028.4,027.0,000.0,036.8,030.0,13.3,0000.0,0001.49,0003.99,0001.15
2023-10-17 12:23:00,SystemResetWarning,0830.4,5.00,000.00,028.4,026.9,000.0,036.8,030.0,13.3,0000.0,0001.47,0003.34,0001.13
2023-10-17 12:24:00,SystemResetWarning,0830.4,5.00,000.00,028.4,026.9,000.0,036.8,030.0,13.3,0000.0,0001.49,0002.26,0001.15
2023-10-17 12:25:00,SystemResetWarning,0830.4,4.99,000.00,028.4,026.9,000.0,036.8,030.0,13.4,0000.0,0001.50,0002.31,0001.16
2023-10-17 12:26:00,SystemResetWarning,0830.4,5.01,000.00,028.4,026.9,000.0,036.8,030.0,13.4,0000.0,0001.49,0002.61,0001.16
2023-10-17 12:27:00,SystemResetWarning,0830.4,5.01,000.00,028.4,026.9,000.0,036.8,030.0,13.3,0000.0,0001.47,0002.95,0001.14
2023-10-17 12:28:00,SystemResetWarning,0830.4,5.01,000.00,028.4,026.9,000.0,036.8,030.0,13.3,0000.0,0001.43,0002.83,0001.13
2023-10-17 12:29:00,SystemResetWarning,0830.4,5.00,000.00,028.4,026.9,000.0,036.8,030.0,13.4,0000.0,0001.44,0003.27,0001.17
2023-10-17 12:30:00,SystemResetWarning,0830.4,4.99,000.00,028.4,026.9,000.0,036.8,030.0,13.4,0000.0,0001.44,0003.27,0001.18
2023-10-17 12:31:00,SystemResetWarning,0830.4,4.99,000.00,028.4,026.9,000.0,036.8,030.0,13.4,0000.0,0001.41,0003.20,0001.18
2023-10-17 12:32:00,SystemResetWarning,0830.5,4.99,000.00,028.4,026.9,000.0,036.8,030.1,13.4,0000.0,0001.39,0003.14,0001.19
2023-10-17 12:33:00,SystemResetWarning,0830.4,4.99,000.00,028.4,026.9,000.0,036.8,030.1,13.4,0000.0,0001.44,0003.19,0001.22
2023-10-17 12:34:00,SystemResetWarning,0830.6,4.99,000.00,028.4,027.0,000.0,036.8,030.1,13.4,0000.0,0001.49,0003.72,0001.26
2023-10-17 12:35:00,SystemResetWarning,0830.7,5.00,000.00,028.4,027.0,000.0,036.8,030.1,13.4,0000.0,0001.57,0004.03,0001.33
2023-10-17 12:36:00,SystemResetWarning,0830.5,5.00,000.00,028.4,027.0,000.0,036.8,030.0,13.4,0000.0,0001.72,0004.44,0001.44
2023-10-17 12:37:00,SystemResetWarning,0830.5,5.01,000.00,028.4,026.9,000.0,036.8,030.0,13.4,0000.0,0001.92,0005.43,0001.56
2023-10-17 12:38:00,SystemResetWarning,0830.4,5.01,000.00,028.4,026.9,000.0,036.8,030.0,13.4,0000.0,0002.10,0005.78,0001.69
2023-10-17 12:39:00,SystemResetWarning,0830.4,5.00,000.00,028.4,026.9,000.0,036.8,030.0,13.4,0000.0,0002.28,0007.44,0001.81
2023-10-17 12:40:00,SystemResetWarning,0830.3,5.01,000.00,028.4,026.9,000.0,036.8,030.0,13.4,0000.0,0002.36,0007.71,0001.86
2023-10-17 12:41:00,SystemResetWarning,0830.4,5.00,000.00,028.4,026.9,000.0,036.8,030.0,13.4,0000.0,0002.50,0008.48,0001.94
2023-10-17 12:42:00,SystemResetWarning,0830.4,5.00,000.00,028.4,026.9,000.0,036.8,030.0,13.4,0000.0,0002.74,0010.10,0002.07
2023-10-17 12:43:00,SystemResetWarning,0830.3,4.99,000.00,028.4,026.9,000.0,036.8,030.0,13.4,0000.0,0002.90,0010.75,0002.20
2023-10-17 12:44:00,SystemResetWarning,0830.3,5.00,000.00,028.4,026.9,000.0,036.8,030.0,13.4,0000.0,0003.00,0010.92,0002.29
2023-10-17 12:45:00,SystemResetWarning,0830.3,5.00,000.00,028.4,026.9,000.0,036.8,030.0,13.4,0000.0,0003.07,0010.85,0002.35
2023-10-17 12:46:00,SystemResetWarning,0830.4,5.01,000.00,028.4,026.9,000.0,036.8,030.0,13.4,0000.0,0003.07,0010.70,0002.35
2023-10-17 12:47:00,SystemResetWarning,0830.4,5.00,000.00,028.4,026.9,000.0,036.9,030.0,13.4,0000.0,0003.02,0010.59,0002.28
2023-10-17 12:48:00,SystemResetWarning,0830.4,5.00,000.00,028.4,026.9,000.0,036.8,030.0,13.4,0000.0,0002.88,0010.16,0002.18
2023-10-17 12:49:00,SystemResetWarning,0830.3,5.00,000.00,028.4,026.9,000.0,036.8,030.1,13.4,0000.0,0002.77,0009.64,0002.10
2023-10-17 12:50:00,SystemResetWarning,0830.3,5.01,000.00,028.4,026.9,000.0,036.8,030.1,13.4,0000.0,0002.67,0008.94,0002.04
2023-10-17 12:51:00,SystemResetWarning,0830.3,5.00,000.00,028.4,026.9,000.0,036.8,030.0,13.4,0000.0,0002.63,0008.97,0002.02
2023-10-17 12:52:00,SystemResetWarning,0830.3,5.00,000.00,028.4,026.9,000.0,036.8,030.0,13.4,0000.0,0002.57,0008.26,0002.01
2023-10-17 12:53:00,SystemResetWarning,0830.2,4.99,000.00,028.4,026.9,000.0,036.8,030.0,13.5,0000.0,0002.48,0006.99,0001.97
2023-10-17 12:54:00,SystemResetWarning,0830.3,5.00,000.00,028.4,026.9,000.0,036.8,030.0,13.4,0000.0,0002.44,0006.12,0001.91
2023-10-17 12:55:00,SystemResetWarning,0830.3,5.00,000.00,028.4,026.9,000.0,036.8,030.0,13.3,0000.0,0002.33,0006.80,0001.83
2023-10-17 12:56:00,SystemResetWarning,0830.2,5.00,000.00,028.4,026.9,000.0,036.8,030.0,13.4,0000.0,0002.22,0006.67,0001.75
2023-10-17 12:57:00,SystemResetWarning,0830.2,5.00,000.00,028.4,026.9,000.0,036.8,030.0,13.5,0000.0,0002.16,0006.68,0001.70
2023-10-17 12:58:00,SystemResetWarning,0830.2,5.01,000.00,028.4,026.9,000.0,036.8,030.0,13.5,0000.0,0002.12,0006.55,0001.68
2023-10-17 12:59:00,SystemResetWarning,0830.2,5.01,000.00,028.4,026.9,000.0,036.8,030.0,13.6,0000.0,0002.10,0006.44,0001.68
